Simultaneous Nadir Overpasses (SNOs) Predictions

Prediction of SNOs between GOES-17 and TERRA Satellite Orbit:

Table of predicted SNOs for the next 14.0 days since TLE Epoch: 10/24/2025
Index Date Time (GOES-17) GOES-17 Lat,Lon TERRA Lat,Lon Distance(km) Time Diff (sec)
1 10/26/2025 02:52:54 -0.30, -89.47 0.47, -85.83 413.43 80
2 10/26/2025 15:14:57 0.31, -89.53 0.52, -90.55 116.38 80
3 10/28/2025 14:52:49 0.32, -89.53 -0.43, -85.86 415.74 80
4 10/29/2025 03:15:00 -0.32, -89.46 -0.57, -90.61 130.70 80
5 10/31/2025 02:52:52 -0.32, -89.46 0.40, -85.92 401.99 80
6 10/31/2025 15:12:16 0.33, -89.53 0.56, -90.65 127.61 80
7 11/02/2025 14:52:48 0.33, -89.53 -0.44, -85.97 405.84 80
8 11/03/2025 03:14:58 -0.33, -89.47 -0.61, -90.70 140.31 80
9 11/05/2025 02:52:50 -0.33, -89.48 0.41, -86.02 393.31 80
10 11/05/2025 15:12:13 0.33, -89.54 0.59, -90.74 136.32 80
11 11/07/2025 14:55:24 0.34, -89.55 -0.40, -86.05 397.47 80
